Simultaneous Nadir Overpasses (SNOs) Predictions

Prediction of SNOs between NOAA-19 and TERRA Satellite Orbit:

Table of predicted SNOs for the next 14.0 days since TLE Epoch: 7/6/2024
Index Date (NOAA-19) Time (NOAA-19) Lat,Lon (NOAA-19) SZA (NOAA-19 ) Date (TERRA) Time (TERRA) Lat,Lon (TERRA) SZA (TERRA ) Distance(km) Time Diff (sec)
1 07/08/2024 02:28:00 -77.87, -29.96 124.56 07/08/2024 02:29:06 -77.86, -30.02 124.57 1.91 66
2 07/08/2024 03:18:53 78.22, 139.27 55.85 07/08/2024 03:18:18 78.22, 139.25 55.84 0.36 35
3 07/10/2024 06:17:56 77.94, 93.01 55.79 07/10/2024 06:18:04 77.96, 93.11 55.81 2.73 8
4 07/12/2024 09:16:56 77.77, 47.40 55.89 07/12/2024 09:17:48 77.76, 47.32 55.88 2.11 52
5 07/12/2024 10:07:42 -78.13,-143.38 123.71 07/12/2024 10:07:02 -78.12,-143.46 123.73 2.29 40
6 07/14/2024 13:06:44 -77.86, 170.47 123.69 07/14/2024 13:06:47 -77.86, 170.45 123.70 0.62 3
7 07/16/2024 16:05:45 -77.62, 124.54 123.61 07/16/2024 16:06:31 -77.62, 124.52 123.61 0.75 46
8 07/16/2024 16:56:39 77.98, -66.30 56.80 07/16/2024 16:55:43 77.99, -66.26 56.80 1.16 56



Historial Predications of SNOs between NOAA-19 and TERRA
